map of PVH home
Great Circle Mapper logo
PVH - Airport
Location
City:  Porto Velho, Rond˘nia, Brazil
Name:Governador Jorge Teixeira de Oliveira
ICAO / IATA:SBPV / PVH

Details
Type:Airport (Aerodrome, Airfield)
Use:Public/Civil, International (customs port of entry)
Latitude:8░42'33"S (-8.709293)
Longitude:63░54'08"W (-63.902280)
Datum:WGS 1984
Elevation:294 ft (90 m)
Variation:12.49░W (WMM2015 magnetic declination)
-0.16░ annual change
Runways:1
Longest:7925 × 148 ft (2416 × 45 m), paved

Time
Time Zone:UTC-4
Local Time:

Weather
METAR:SBPV 061900Z 23002KT 9999 SCT018 SCT100 27/20 Q1012
TAF:SBPV 052200Z 0600/0624 23004KT 9999 FEW015 TN18/0608Z TX28/0617Z
BECMG 0602/0604 18005KT BKN007
BECMG 0612/0614 36005KT 9999 SCT015
BECMG 0 615/0617 SCT020
BECMG 0620/0622 36003KT FEW020
RMK PDZ

Related Locations
Nearby:
Farthest:KUD: 12300 mi / 19794 km
Kudat, Sabah, MY

Find:

   beyond  
but within

Other Information
Maps:
NOTAMs:
Links:
Sources:

  
flag of Brazil
flag of Rond˘nia
  

Sectional Chart

Flight Planning
at skyvector.com

Satellite Image

Google Maps Satellite view

 

Copyright © 2004-2015 Karl L. Swartz. All rights reserved.
The Great Circle Mapper name and logo are trademarks of the Great Circle Mapper.
All other trademarks mentioned herein belong to their respective owners.
Please see credits for attibutions and further copyright information.

  Follow gcmap on Facebook Follow gcmap on Twitter Follow gcmap on Google+

hCard Microformat

Geo Microformat